DW6536 Weather Reports


Display with metric or nautical units.
time (UTC)temp
F
wind
direction
speed
MPH
gust
MPH
rain 1hr
in
rain 24hr
in
rain mn
in
humidity
%
barometer
mb
20260506160014 62 41 3.0 0.0 0.00 0.00 0.00 87 1011.4
20260506154507 63 66 3.0 0.0 0.00 0.00 0.00 87 1011.0
20260506153003 65 267 4.0 0.0 0.00 0.00 0.00 85 1010.5
20260506151600 66 347 3.0 0.0 0.00 0.00 0.00 84 1010.0
20260506150100 69 311 2.0 0.0 0.00 0.00 0.00 82 1009.6
20260506144556 74 1 2.0 0.0 0.00 0.00 0.00 78 1008.4
20260506143047 77 101 1.0 0.0 0.00 0.00 0.00 84 1007.9
20260506141548 76 136 0.0 0.0 0.00 0.00 0.00 88 1007.4
20260506140044 75 60 0.0 0.0 0.00 0.00 0.00 90 1007.6
20260506134541 74 185 1.0 0.0 0.00 0.00 0.00 91 1007.2
20260506133042 74 135 1.0 0.0 0.00 0.00 0.00 91 1007.3
20260506131546 73 122 0.0 0.0 0.00 0.00 0.00 92 1007.1
20260506130038 73 146 1.0 0.0 0.00 0.00 0.00 92 1006.9
20260506124538 73 147 1.0 0.0 0.00 0.00 0.00 92 1006.7
20260506123036 73 133 0.0 0.0 0.00 0.00 0.00 92 1006.6
20260506121535 73 126 0.0 0.0 0.00 0.00 0.00 92 1006.6
20260506120039 73 126 0.0 0.0 0.00 0.00 0.00 92 1006.7
20260506114533 73 195 0.0 0.0 0.00 0.00 0.00 91 1006.5
20260506113039 73 195 0.0 0.0 0.00 0.00 0.00 91 1006.6
20260506111532 73 195 0.0 0.0 0.00 0.00 0.00 91 1006.7
20260506110031 73 195 0.0 0.0 0.00 0.00 0.00 91 1006.6
20260506104533 73 195 0.0 0.0 0.00 0.00 0.00 91 1006.5
20260506103027 73 195 0.0 0.0 0.00 0.00 0.00 90 1006.4
20260506101527 74 152 0.0 0.0 0.00 0.00 0.00 90 1006.3
20260506100025 74 237 0.0 0.0 0.00 0.00 0.00 89 1006.1
20260506094524 74 93 0.0 0.0 0.00 0.00 0.00 89 1006.0
20260506093022 74 165 1.0 0.0 0.00 0.00 0.00 88 1005.8
20260506091520 74 80 0.0 0.0 0.00 0.00 0.00 87 1005.7
20260506090023 74 133 1.0 0.0 0.00 0.00 0.00 87 1005.4
20260506084520 74 115 1.0 0.0 0.00 0.00 0.00 87 1005.5
20260506083017 74 258 1.0 0.0 0.00 0.00 0.00 87 1005.4
20260506081519 74 106 2.0 0.0 0.00 0.00 0.00 86 1005.3
20260506073013 75 145 2.0 0.0 0.00 0.00 0.00 86 1005.7
20260506071513 75 147 2.0 0.0 0.00 0.00 0.00 86 1005.9
20260506061510 75 135 3.0 0.0 0.00 0.00 0.00 86 1005.8
20260506044500 76 152 2.0 0.0 0.00 0.00 0.00 85 1005.7
20260506043002 76 116 2.0 0.0 0.00 0.00 0.00 85 1005.8
20260506041605 76 184 2.0 0.0 0.00 0.00 0.00 85 1005.6
20260506040100 76 110 2.0 0.0 0.00 0.00 0.00 84 1005.6
20260506034615 76 174 2.0 0.0 0.00 0.00 0.00 84 1005.2
20260506033059 76 162 2.0 0.0 0.00 0.00 0.00 83 1005.1
20260506031608 77 149 3.0 0.0 0.00 0.00 0.00 82 1005.0
20260506030058 77 144 1.0 0.0 0.00 0.00 0.00 82 1004.8
20260506024618 77 126 1.0 0.0 0.00 0.00 0.00 81 1004.7
20260506023057 77 149 1.0 0.0 0.00 0.00 0.00 80 1004.3
20260506021558 78 132 1.0 0.0 0.00 0.00 0.00 79 1004.1
20260506020058 78 135 1.0 0.0 0.00 0.00 0.00 79 1003.8
20260506014556 78 126 1.0 0.0 0.00 0.00 0.00 78 1003.7
20260506013108 79 145 1.0 0.0 0.00 0.00 0.00 77 1003.7
20260506011607 80 185 1.0 0.0 0.00 0.00 0.00 76 1003.5
20260506010057 80 145 1.0 0.0 0.00 0.00 0.00 75 1003.5
20260506004554 81 226 1.0 0.0 0.00 0.00 0.00 74 1003.6
20260506003053 81 115 1.0 0.0 0.00 0.00 0.00 73 1003.5
20260506001553 81 91 1.0 0.0 0.00 0.00 0.00 72 1003.7
20260506000052 82 141 1.0 0.0 0.00 0.00 0.00 72 1003.6
20260505234552 82 190 1.0 0.0 0.00 0.00 0.00 72 1003.4
20260505233051 82 154 2.0 0.0 0.00 0.00 0.00 71 1003.3
20260505231551 83 122 2.0 0.0 0.00 0.00 0.00 70 1003.0
20260505224550 83 162 3.0 0.0 0.00 0.00 0.00 69 1003.0
20260505223057 84 70 2.0 0.0 0.00 0.00 0.00 68 1003.0
20260505221549 84 125 3.0 0.0 0.00 0.00 0.00 68 1003.0
20260505220048 84 81 3.0 0.0 0.00 0.00 0.00 68 1003.2
20260505214548 85 74 3.0 0.0 0.00 0.00 0.00 67 1003.3
20260505213054 85 205 3.0 0.0 0.00 0.00 0.00 67 1003.5
20260505211542 85 261 2.0 0.0 0.00 0.00 0.00 67 1003.7
20260505210041 85 85 3.0 0.0 0.00 0.00 0.00 68 1003.7
20260505204541 84 91 4.0 0.0 0.00 0.00 0.00 69 1003.8
20260505203045 84 135 2.0 0.0 0.00 0.00 0.00 69 1004.0
20260505201537 85 127 2.0 0.0 0.00 0.00 0.00 69 1004.3
20260505200036 84 185 3.0 0.0 0.00 0.00 0.00 68 1004.4
20260505194534 85 149 2.0 0.0 0.00 0.00 0.00 69 1004.7
20260505193031 84 207 2.0 0.0 0.00 0.00 0.00 68 1005.0
20260505191530 83 228 2.0 0.0 0.00 0.00 0.00 69 1005.0
20260505190027 83 195 2.0 0.0 0.00 0.00 0.00 70 1005.2
20260505184527 82 287 2.0 0.0 0.00 0.00 0.00 70 1005.4
20260505183025 81 245 2.0 0.0 0.00 0.00 0.00 72 1005.7
20260505181520 79 215 2.0 0.0 0.00 0.00 0.00 74 1005.9
20260505180018 79 216 2.0 0.0 0.00 0.00 0.00 74 1006.1
20260505174516 78 156 2.0 0.0 0.00 0.00 0.00 76 1006.2
20260505173032 77 187 2.0 0.0 0.00 0.00 0.00 78 1006.3
20260505171509 76 207 2.0 0.0 0.00 0.00 0.00 78 1006.4
20260505170006 75 272 2.0 0.0 0.00 0.00 0.00 81 1006.5
20260505164505 74 195 1.0 0.0 0.00 0.00 0.00 82 1006.5
20260505163009 74 199 2.0 0.0 0.00 0.00 0.00 82 1006.5
20260505161600 73 153 1.0 0.0 0.00 0.00 0.00 83 1006.4